Orbital Elements at Epoch 2459200.5 (2020-Dec-17.0) TDB
Reference: JPL 27 (heliocentric ecliptic J2000)
Element | Value | Uncertainty (1-sigma) | Units |
e | .252888006874697 | 4.5878e-08 | |
a | 2.371495462303966 | 8.985e-09 | au |
q | 1.771772701529527 | 1.1209e-07 | au |
i | 2.425192097537496 | 4.6009e-06 | deg |
node | 314.1243899068906 | 8.6547e-05 | deg |
peri | 7.259788147231594 | 8.6799e-05 | deg |
M | 320.9688751920624 | 7.6244e-06 | deg |
tp | 2459345.124023679271 (2021-May-10.62402368) | 2.8609e-05 | TDB |
period | 1333.926418486137 3.65 | 7.5809e-06 2.076e-08 | d yr |
n | .269879953654836 | 1.5338e-09 | deg/d |
Q | 2.971218223078404 | 1.1257e-08 | au |
|
| | Orbit Determination Parameters
Additional Information
|